Wiesbaden, Germany

11:22 AM CEST on May 22, 2015 (GMT +0200)
Wiesbaden Army Air Field | | Change Station
CLOSE
Current Station
Airport
Location: Wiesbaden,
Elevation: 459 ft
Nearby Weather Stations

Elev 459 ft 50.05 °N, 8.33 °E | Updated 24 minutes ago

Clear
Clear
62 °F
Feels Like 62 °F
N
1
Wind Variable Wind from Variable

Today
High -- | Low -- °F
--% Chance of Precip.
Yesterday
High -- | Low -- °F
Precip. -- in
5:32 AM 9:15 PM
Waxing Crescent, 20% visible
Pressure 30.33 in
Visibility 6.2 miles
Clouds Clear
Dew Point 41 °F
Humidity 47%
Rainfall 0.00 in
Snow Depth Not available.
UV 7 out of 12
Pollen Not available.
Air Quality Not available.
Flu Activity Not available.
METAR ETOU 220858Z AUTO VRB01KT 9999 CLR 17/05 A3032 RMK AO2 SLP270 T01650052 58004 $

More Conditions Fewer Conditions

Pressure 30.33 in
Visibility 6.2 miles
Clouds Clear
Dew Point 41 °F
Humidity 47%
Rainfall 0.00 in
Snow Depth Not available.
UV 7 out of 12
Pollen Not available.
Air Quality Not available.
Flu Activity Not available.
METAR ETOU 220858Z AUTO VRB01KT 9999 CLR 17/05 A3032 RMK AO2 SLP270 T01650052 58004 $

More Conditions Fewer Conditions

10-Day Weather Forecast

Almanac

Astronomy

May. 22, 2015 Rise Set
Actual Time
Civil Twilight
Nautical Twilight
Astronomical Twilight
Moon
Length of Visible Light
Length of Day
Tomorrow will be .
, % of the Moon is Illuminated

Today's Extremes

Country Highs Country Lows

Community

WunderPhotos

Upload Photos

1,823,195 photos uploaded!

WunderBlogs® & News

Nearby

Air Quality

  Air Quality AQ Index Pollutant
Not available.

Snow Depth

Station Depth Elevation

Earthquake Activity

City Distance Mag. Time & Date
Minimum magnitude displayed is 2.5.

Coastal Water Temperatures

Place Temperature

Stations

Nearby Weather Stations

Station Location Temp. Windchill Dew Point Humidity Wind Precip. Elev Updated Type